sat.trackr.live / text

‹ back to catalog

STARLINK-31514

NORAD 59187 · 2024-045K

PAYLOAD ACTIVE UNKNOWN

§ Identity

Operator
Country
US
Launch date
2024-03-10
Launch site
AFETR
Launch vehicle
Mass (kg)
RCS (m²)

Purposes: comms

External: N2YO · Heavens-Above · Gunter

§ Orbital elements

Epoch: 2026-09-19T21:48:23.715648Z

Period
94.27 min
Inclination
42.9986°
Eccentricity
0.0001376
Mean motion
15.27597280 rev/d
Perigee alt
482.1 km
Apogee alt
483.9 km
Semi-major
6,861.1 km
B*
1.4429e-4
RAAN
75.7861°
Arg perigee
273.0974°
Mean anomaly
86.9720°
Rev number
14,286

§ Raw data

STARLINK-315141 59187U 24045K   26262.90860782  .00003713  00000+0  14429-3 0  99992 59187  42.9986  75.7861 0001376 273.0974  86.9720 15.27597280142862

JSON: /api/v1/satellites/59187 · /tle

For live sub-satellite position, see the globe view (requires WebGL).

§ Visibility from observer

Set your observer location to see the next 7 days of passes ≥ 10°. The values pass through the URL so the page stays shareable.

No JS? Fill the form by hand. The geolocation button needs JavaScript.